Regional Weather Roundup
Issued by NWS

Home | Current Version | Previous Version | Text Only | Print | Product List | Glossary Off
Versions: 1 2 3 4 5 6 7 8 9 10 11 12 13 14 15 16 17 18 19 20 21 22 23 24 25 26 27 28 29 30 31 32 33 34 35 36 37 38 39 40 41 42 43 44 45 46 47 48 49 50

000
ASUS43 KLMK 101610
RWRKY
KENTUCKY REGIONAL WEATHER ROUNDUP
NATIONAL WEATHER SERVICE LOUISVILLE KY
1200 PM EDT THU JUL 10 2014

NOTE "FAIR" INDICATES FEW OR NO CLOUDS BELOW 12,000 FEET
WITH NO SIGNIFICANT WEATHER AND/OR OBSTRUCTIONS TO VISIBILITY.

KYZ001>023-026-027-061>063-070>075-101700-
WESTERN AND SOUTH CENTRAL KENTUCKY

CITY           SKY/WX    TMP DP  RH WIND       PRES   REMARKS
PADUCAH        MOSUNNY   83  67  58 E6        30.11R
HENDERSON      SUNNY     79  63  57 NE5       30.12S
OWENSBORO      SUNNY     81  59  47 NE9       30.12S
HOPKINSVILLE   MOSUNNY   85  61  44 VRB1      30.10S
BOWLING GREEN  MOSUNNY   86  62  44 NE7       30.12R
GLASGOW        MOSUNNY   83  61  47 W6        30.12S
$$

KYZ024-025-028>034-038-045-046-053-101700-
NORTH CENTRAL KENTUCKY

CITY           SKY/WX    TMP DP  RH WIND       PRES   REMARKS
LOUISVILLE/SDF MOSUNNY   83  57  41 NE5       30.12S
LOUISVILLE/LOU MOSUNNY   83  59  44 N7        30.13R
FORT KNOX      SUNNY     79  64  60 VRB3      30.12S
$$

KYZ035>037-039>044-047>052-055>060-089>105-101700-
NORTHEAST KENTUCKY

CITY           SKY/WX    TMP DP  RH WIND       PRES   REMARKS
LEXINGTON      PTSUNNY   83  62  49 NW5       30.13S
COVINGTON      MOSUNNY   78  57  48 W3        30.14R
FRANKFORT      PTSUNNY   80  60  50 VRB5      30.12S
$$

KYZ054-064>069-076>088-106>120-101700-
SOUTHEAST KENTUCKY

CITY           SKY/WX    TMP DP  RH WIND       PRES   REMARKS
JACKSON        MOSUNNY   81  60  48 CALM      30.14S
LONDON         SUNNY     83  58  42 N3        30.14R
SOMERSET       SUNNY     81  57  44 W3        30.14S
MIDDLESBORO    PTSUNNY   78  67  71 CALM      30.14S
MONTICELLO     SUNNY     84  63  49 CALM      30.15R
$$



USA.gov is the U.S. government's official web portal to all federal, state and local government web resources and services.